TimeCST,TemperatureF,Dew PointF,Humidity,Sea Level PressureIn,VisibilityMPH,Wind Direction,Wind SpeedMPH,Gust SpeedMPH,PrecipitationIn,Events,Conditions,WindDirDegrees,DateUTC
12:55 AM,30.9,27.0,85,29.97,10.0,NW,8.1,-,N/A,,Overcast,310,2013-02-28 06:55:00
1:36 AM,30.2,26.6,86,29.97,10.0,WNW,8.1,17.3,N/A,,Overcast,300,2013-02-28 07:36:00
1:42 AM,30.2,26.6,86,29.97,10.0,NW,8.1,-,N/A,,Overcast,310,2013-02-28 07:42:00
1:55 AM,30.7,26.4,84,29.97,10.0,NW,11.5,17.3,N/A,,Overcast,310,2013-02-28 07:55:00
2:08 AM,30.2,26.6,86,29.98,10.0,NW,9.2,18.4,N/A,,Scattered Clouds,310,2013-02-28 08:08:00
2:54 AM,30.2,26.6,86,29.99,10.0,WNW,6.9,-,N/A,,Overcast,290,2013-02-28 08:54:00
2:55 AM,30.4,25.9,83,29.99,10.0,WNW,6.9,-,N/A,,Overcast,300,2013-02-28 08:55:00
3:16 AM,30.2,26.6,86,29.99,10.0,WNW,8.1,-,N/A,,Overcast,290,2013-02-28 09:16:00
3:31 AM,30.2,26.6,86,29.99,10.0,NW,9.2,-,N/A,,Overcast,310,2013-02-28 09:31:00
3:33 AM,30.2,26.6,86,29.99,10.0,WNW,5.8,-,N/A,,Overcast,300,2013-02-28 09:33:00
3:43 AM,30.2,26.6,86,29.99,10.0,WNW,6.9,-,N/A,,Overcast,300,2013-02-28 09:43:00
3:55 AM,31.1,26.2,82,29.99,10.0,WNW,10.4,-,N/A,,Overcast,300,2013-02-28 09:55:00
4:08 AM,32.0,26.6,80,29.99,10.0,WNW,12.7,-,N/A,,Overcast,300,2013-02-28 10:08:00
4:22 AM,32.0,26.6,80,29.99,10.0,NW,10.4,-,N/A,,Overcast,310,2013-02-28 10:22:00
4:55 AM,31.1,25.9,81,30.01,10.0,WNW,8.1,-,N/A,,Overcast,290,2013-02-28 10:55:00
5:04 AM,30.2,26.6,86,30.01,10.0,WNW,8.1,-,N/A,,Overcast,300,2013-02-28 11:04:00
5:10 AM,30.2,26.6,86,30.01,10.0,WNW,11.5,-,N/A,,Overcast,290,2013-02-28 11:10:00
5:55 AM,30.6,26.1,83,30.03,10.0,WNW,9.2,-,N/A,,Overcast,290,2013-02-28 11:55:00
6:55 AM,30.0,26.1,85,30.05,10.0,WNW,11.5,-,N/A,,Overcast,300,2013-02-28 12:55:00
7:55 AM,30.0,26.2,86,30.07,10.0,WNW,9.2,-,N/A,,Overcast,300,2013-02-28 13:55:00
8:55 AM,29.7,25.9,86,30.09,10.0,NW,10.4,-,N/A,,Overcast,310,2013-02-28 14:55:00
9:34 AM,30.2,26.6,86,30.10,10.0,NW,6.9,-,N/A,,Overcast,310,2013-02-28 15:34:00
9:55 AM,30.0,26.6,87,30.11,10.0,WNW,9.2,-,0.00,,Overcast,290,2013-02-28 15:55:00
9:56 AM,30.2,26.6,86,30.11,10.0,WNW,9.2,-,N/A,,Overcast,290,2013-02-28 15:56:00
10:55 AM,29.8,25.3,83,30.12,10.0,WNW,12.7,-,N/A,,Overcast,300,2013-02-28 16:55:00
11:55 AM,30.2,25.3,82,30.12,10.0,NW,9.2,-,N/A,,Overcast,310,2013-02-28 17:55:00
12:55 PM,30.4,25.9,83,30.12,10.0,West,11.5,-,N/A,,Overcast,280,2013-02-28 18:55:00
1:52 PM,30.2,26.6,86,30.12,10.0,WNW,9.2,-,N/A,,Overcast,290,2013-02-28 19:52:00
1:55 PM,30.2,26.2,85,30.12,10.0,West,9.2,-,0.00,,Overcast,280,2013-02-28 19:55:00
2:55 PM,31.3,27.0,84,30.13,6.0,West,6.9,-,0.00,Snow,Light Snow,260,2013-02-28 20:55:00
3:55 PM,31.5,28.4,88,30.13,5.0,West,8.1,-,0.00,Snow,Light Snow,280,2013-02-28 21:55:00
4:25 PM,30.2,28.4,93,30.13,2.5,WNW,8.1,-,N/A,Snow,Light Snow,290,2013-02-28 22:25:00
4:26 PM,30.2,28.4,93,30.13,3.0,WNW,8.1,-,N/A,Snow,Light Snow,290,2013-02-28 22:26:00
4:27 PM,30.2,28.4,93,30.13,2.5,WNW,8.1,-,N/A,Snow,Light Snow,290,2013-02-28 22:27:00
4:28 PM,30.2,28.4,93,30.13,3.0,WNW,8.1,-,N/A,Snow,Light Snow,290,2013-02-28 22:28:00
4:44 PM,30.2,28.4,93,30.13,4.0,West,9.2,-,N/A,Snow,Light Snow,280,2013-02-28 22:44:00
4:52 PM,30.2,28.4,93,30.13,4.0,WNW,8.1,-,N/A,Snow,Light Snow,290,2013-02-28 22:52:00
4:55 PM,30.6,29.3,95,30.13,4.0,West,8.1,-,0.00,Snow,Light Snow,280,2013-02-28 22:55:00
5:02 PM,30.2,28.4,93,30.13,4.0,WNW,6.9,-,N/A,Snow,Light Snow,290,2013-02-28 23:02:00
5:12 PM,30.2,28.4,93,30.13,4.0,WNW,8.1,-,N/A,Snow,Light Snow,290,2013-02-28 23:12:00
5:26 PM,30.2,28.4,93,30.14,5.0,West,6.9,-,N/A,,Overcast,280,2013-02-28 23:26:00
5:27 PM,30.2,28.4,93,30.14,5.0,West,5.8,-,N/A,,Overcast,280,2013-02-28 23:27:00
5:32 PM,30.2,30.2,100,30.14,5.0,West,6.9,-,N/A,Snow,Light Snow,280,2013-02-28 23:32:00
5:44 PM,30.2,30.2,100,30.14,5.0,WNW,5.8,-,N/A,Snow,Light Snow,290,2013-02-28 23:44:00
5:55 PM,30.2,29.5,97,30.14,5.0,WNW,4.6,-,0.00,Snow,Light Snow,290,2013-02-28 23:55:00
5:57 PM,30.2,30.2,100,30.14,5.0,WNW,5.8,-,N/A,,Overcast,290,2013-02-28 23:57:00
5:58 PM,30.2,30.2,100,30.14,5.0,WNW,6.9,-,N/A,,Overcast,290,2013-02-28 23:58:00
5:59 PM,30.2,30.2,100,30.14,5.0,WNW,6.9,-,N/A,,Overcast,290,2013-02-28 23:59:00
6:02 PM,30.2,30.2,100,30.14,6.0,WNW,5.8,-,N/A,,Overcast,290,2013-03-01 00:02:00
6:03 PM,30.2,30.2,100,30.14,7.0,WNW,5.8,-,N/A,,Overcast,290,2013-03-01 00:03:00
6:06 PM,30.2,30.2,100,30.14,8.0,WNW,5.8,-,N/A,,Overcast,300,2013-03-01 00:06:00
6:09 PM,30.2,28.4,93,30.14,9.0,WNW,4.6,-,N/A,,Overcast,290,2013-03-01 00:09:00
6:10 PM,30.2,28.4,93,30.14,9.0,WNW,4.6,-,N/A,,Overcast,290,2013-03-01 00:10:00
6:11 PM,30.2,28.4,93,30.14,10.0,West,5.8,-,N/A,,Overcast,280,2013-03-01 00:11:00
6:52 PM,30.2,28.4,93,30.15,10.0,WNW,6.9,-,N/A,Snow,Light Snow,290,2013-03-01 00:52:00
6:55 PM,30.6,27.7,89,30.15,10.0,WNW,5.8,-,0.00,Snow,Light Snow,290,2013-03-01 00:55:00
7:55 PM,30.4,27.1,88,30.15,10.0,WNW,9.2,-,0.00,Snow,Light Snow,290,2013-03-01 01:55:00
8:39 PM,30.2,28.4,93,30.16,9.0,West,5.8,-,N/A,,Overcast,280,2013-03-01 02:39:00
8:48 PM,30.2,26.6,86,30.16,10.0,WNW,6.9,-,N/A,,Overcast,290,2013-03-01 02:48:00
8:55 PM,29.8,27.0,89,30.16,10.0,WNW,6.9,-,0.00,,Overcast,290,2013-03-01 02:55:00
8:59 PM,30.2,26.6,86,30.16,10.0,WNW,6.9,-,N/A,,Overcast,290,2013-03-01 02:59:00
9:25 PM,30.2,26.6,86,30.16,10.0,WNW,6.9,-,N/A,,Overcast,300,2013-03-01 03:25:00
9:28 PM,30.2,26.6,86,30.16,10.0,WNW,6.9,-,N/A,,Overcast,300,2013-03-01 03:28:00
9:30 PM,30.2,26.6,86,30.16,10.0,WNW,5.8,-,N/A,,Overcast,290,2013-03-01 03:30:00
9:36 PM,30.2,26.6,86,30.16,10.0,WNW,8.1,-,N/A,,Overcast,290,2013-03-01 03:36:00
9:38 PM,30.2,26.6,86,30.16,10.0,WNW,6.9,-,N/A,,Overcast,290,2013-03-01 03:38:00
9:55 PM,29.7,26.2,87,30.16,10.0,WNW,6.9,-,0.00,,Overcast,300,2013-03-01 03:55:00
10:13 PM,30.2,26.6,86,30.15,10.0,WNW,5.8,-,N/A,,Overcast,300,2013-03-01 04:13:00
10:55 PM,29.8,25.9,85,30.15,10.0,WNW,5.8,-,N/A,,Overcast,300,2013-03-01 04:55:00
11:09 PM,30.2,26.6,86,30.15,10.0,WNW,8.1,-,N/A,,Overcast,300,2013-03-01 05:09:00
11:48 PM,30.2,26.6,86,30.14,10.0,WNW,8.1,-,N/A,,Overcast,290,2013-03-01 05:48:00